Location: Pedholt
(56.0260°N, 10.2097°E)
Time: 06:24:26
(UTC+00:00)

Vanguard 3 - All Passes

Search period start: 31 July 2021 00:00
Search period end: 10 August 2021 00:00
Orbit: 508 x 3261 km, 33.4° (Epoch: 30 July)

Date Brightness Start Highest point End Pass type
(mag) Time Alt. Az. Time Alt. Az. Time Alt. Az.
31 Jul - 15:07:25 10° SSE 15:12:43 12° SE 15:18:35 10° ESE daylight
31 Jul - 17:11:18 10° SSW 17:23:44 27° SSE 17:38:24 10° ESE daylight
31 Jul - 19:21:32 10° SW 19:36:35 34° S 19:52:34 10° SE daylight
31 Jul - 21:34:54 10° WSW 21:49:40 28° SSW 22:03:29 10° SSE visible
31 Jul - 23:53:25 10° WSW 00:01:13 14° SW 00:08:25 10° SSW visible
01 Aug - 15:59:08 10° S 16:09:00 21° SE 16:20:54 10° ESE daylight
01 Aug - 18:07:19 10° SW 18:21:02 32° SSE 18:36:56 10° ESE daylight
01 Aug - 20:19:07 10° WSW 20:34:13 32° SSW 20:49:36 10° SE visible
01 Aug - 22:34:18 10° WSW 22:46:41 21° SW 22:58:12 10° S visible
02 Aug - 14:49:20 10° SSE 14:54:54 13° SE 15:01:13 10° ESE daylight
02 Aug - 16:54:00 10° SSW 17:05:50 28° SSE 17:20:27 10° ESE daylight
02 Aug - 19:04:13 10° SW 19:18:36 34° S 19:34:43 10° SE daylight
02 Aug - 21:17:28 10° WSW 21:31:37 27° SSW 21:45:36 10° SSE visible
02 Aug - 23:36:46 10° WSW 23:43:12 13° SW 23:49:22 10° SSW visible
03 Aug - 15:41:49 10° S 15:51:11 21° SE 16:02:57 10° ESE daylight
03 Aug - 17:50:08 10° SW 18:03:06 32° S 18:18:57 10° ESE daylight
03 Aug - 20:01:50 10° WSW 20:16:12 31° SSW 20:31:40 10° SE visible
03 Aug - 22:17:04 10° WSW 22:28:39 20° SW 22:39:54 10° S visible
04 Aug - 14:31:42 10° SSE 14:37:11 13° SE 14:43:34 10° ESE daylight
04 Aug - 16:36:54 10° SSW 16:48:01 28° SSE 17:02:21 10° ESE daylight
04 Aug - 18:47:05 10° WSW 19:00:39 33° S 19:16:40 10° SE daylight
04 Aug - 21:00:14 10° WSW 21:13:36 25° SSW 21:27:26 10° SSE visible
04 Aug - 23:21:13 10° WSW 23:25:10 11° SW 23:29:04 10° SW visible
05 Aug - 15:24:43 10° S 15:33:30 21° SSE 15:44:51 10° ESE daylight
05 Aug - 17:33:08 10° SW 17:45:16 31° S 18:00:47 10° ESE daylight
05 Aug - 19:44:44 10° WSW 19:58:13 30° SSW 20:13:28 10° SE visible
05 Aug - 22:00:09 10° WSW 22:10:37 18° SW 22:21:11 10° S visible
06 Aug - 14:14:25 10° SSE 14:19:35 14° SE 14:25:43 10° ESE daylight
06 Aug - 16:20:00 10° SSW 16:30:19 27° SSE 16:44:07 10° ESE daylight
06 Aug - 18:30:08 10° WSW 18:42:47 31° S 18:58:25 10° SE daylight
06 Aug - 20:43:15 10° WSW 20:55:36 23° SSW 21:08:58 10° SSE visible
07 Aug - 15:07:49 10° SSW 15:15:55 21° SSE 15:26:39 10° ESE daylight
07 Aug - 17:16:20 10° SW 17:27:34 30° S 17:42:28 10° ESE daylight
07 Aug - 19:27:50 10° WSW 19:40:20 28° SSW 19:55:04 10° SSE visible
07 Aug - 21:43:39 10° WSW 21:52:38 16° SW 22:01:57 10° S visible
08 Aug - 13:57:26 10° SSE 14:02:08 13° SE 14:07:45 10° ESE daylight
08 Aug - 16:03:16 10° SSW 16:12:44 27° SSE 16:25:47 10° ESE daylight
08 Aug - 18:13:22 10° WSW 18:25:02 30° S 18:39:59 10° SE daylight
08 Aug - 20:26:32 10° WSW 20:37:41 21° SSW 20:50:10 10° S visible
09 Aug - 14:51:06 10° SSW 14:58:29 20° SSE 15:08:24 10° ESE daylight
09 Aug - 16:59:40 10° SW 17:09:57 29° S 17:24:01 10° SE daylight
09 Aug - 19:11:08 10° WSW 19:22:31 25° SSW 19:36:23 10° SSE daylight
09 Aug - 21:27:50 10° WSW 21:34:42 13° SW 21:41:58 10° SSW visible
